Orbital Elements at Epoch 2459000.5 (2020-May-31.0) TDB
Reference: JPL 25 (heliocentric ecliptic J2000)
Element | Value | Uncertainty (1-sigma) | Units |
e | .1457388934735118 | 4.6068e-08 | |
a | 2.285137656132173 | 9.9477e-09 | au |
q | 1.952104222692816 | 1.0655e-07 | au |
i | 6.142266594165068 | 4.2987e-06 | deg |
node | 248.9866729973704 | 4.1782e-05 | deg |
peri | 105.9404771104473 | 4.4952e-05 | deg |
M | 240.8685951121565 | 2.1186e-05 | deg |
tp | 2459418.032936543011 (2021-Jul-22.53293654) | 7.6011e-05 | TDB |
period | 1261.731592076794 3.45 | 8.2389e-06 2.256e-08 | d yr |
n | .2853221733217005 | 1.8631e-09 | deg/d |
Q | 2.61817108957153 | 1.1397e-08 | au |
|
| | Orbit Determination Parameters
Additional Information
|